GFSWCAN_850_rhum_171.txt.gz
RH
90 92 93 93 92 88 87 89 98 85 86 87 86 79 75 76 76 77 88 88 92 93 83 81 73 65 66 62 54 57 56 63 58 64 63 61 56 41 41 34 54 59 69 78 71 81 84 38 40 55 50 45 45 48
90 91 91 90 92 90 95 99 95 88 86 83 84 84 82 75 72 75 86 90 99 100 89 70 73 78 78 71 66 65 59 62 56 58 53 48 49 42 41 54 36 53 43 47 53 55 37 38 36 41 43 47 45 54
100 92 80 78 79 79 78 78 77 78 80 81 80 79 77 76 72 68 77 94 99 100 92 98 69 70 76 82 83 76 70 65 65 58 53 52 67 57 64 57 51 42 40 48 49 41 38 38 39 41 40 47 57 59
92 89 100 87 80 92 78 76 93 94 99 100 99 91 83 72 69 66 59 66 99 99 99 88 88 88 87 89 88 86 82 78 74 73 71 81 84 63 66 56 58 45 46 49 50 43 42 41 41 46 54 60 60 61
100 100 100 99 100 100 100 97 99 100 100 99 97 93 84 67 59 60 70 55 74 94 96 90 89 63 77 77 76 88 93 94 92 80 83 89 86 84 77 79 84 56 54 56 57 43 42 42 42 51 60 62 62 60
100 100 100 100 100 99 97 94 88 87 83 81 71 64 57 51 52 90 96 82 99 99 99 99 95 78 69 79 85 94 96 100 99 92 96 87 79 72 96 95 56 51 50 50 50 50 48 50 55 56 62 63 62 62
94 96 96 98 99 98 98 92 78 65 60 55 48 42 38 41 52 88 84 96 99 100 99 99 99 96 98 93 97 97 100 100 100 99 100 98 93 96 98 89 58 56 55 54 51 50 53 56 59 59 62 59 57 54
71 66 67 69 70 70 69 53 53 64 65 60 56 51 45 40 40 41 36 58 80 99 99 99 96 94 96 98 97 100 100 100 100 99 100 99 94 98 97 64 58 58 57 57 56 56 57 59 65 64 61 55 68 59
83 69 63 60 57 55 51 48 44 44 52 50 53 59 55 46 42 39 34 40 47 78 95 96 89 74 95 98 98 100 100 98 98 98 97 97 93 96 74 64 57 53 52 58 64 62 59 59 63 63 60 54 51 48
83 82 73 64 62 66 65 62 58 54 62 70 62 64 59 87 69 75 84 90 99 97 94 94 77 76 79 94 98 99 99 96 95 85 93 100 85 60 56 55 55 56 59 68 67 61 60 61 57 55 55 54 52 52
60 63 68 66 59 56 63 70 64 60 60 72 69 62 75 89 97 97 96 99 93 100 99 96 73 70 83 90 94 97 99 89 94 76 91 84 76 56 57 61 61 63 67 68 66 67 65 62 61 58 54 46 47 39
60 58 60 57 53 55 56 68 80 78 68 74 78 75 77 91 99 96 88 86 98 85 93 98 98 96 93 98 100 99 97 96 92 85 95 84 48 58 64 71 71 71 70 70 70 70 61 53 47 46 47 44 51 46
74 70 66 64 61 58 59 58 72 86 79 82 84 76 99 93 98 90 80 82 87 81 90 97 92 100 100 100 100 100 99 92 82 93 74 50 57 64 70 70 84 84 76 68 59 52 42 40 41 36 38 31 32 51
66 76 79 74 68 68 67 58 69 88 99 96 98 94 84 84 74 68 65 68 90 98 98 99 99 99 99 99 98 97 96 96 93 90 77 60 70 68 74 85 95 88 78 69 42 28 26 24 30 40 48 44 46 35
66 63 68 78 80 74 67 65 81 89 98 97 98 90 89 71 84 88 87 81 83 98 99 99 97 99 90 97 91 86 87 91 74 66 78 86 63 64 73 78 66 46 46 62 47 40 41 42 45 44 48 51 45 42
66 68 68 63 68 76 74 81 95 98 98 98 98 93 86 88 76 93 82 97 88 100 100 93 93 90 80 87 89 81 75 63 55 76 78 65 52 44 45 44 48 47 51 48 55 55 55 54 58 63 63 59 49 44
72 84 71 63 59 64 78 98 98 98 98 98 94 82 74 66 71 65 80 68 85 99 80 60 78 66 72 79 76 75 66 57 53 48 47 50 48 49 48 44 41 41 43 48 47 48 49 46 44 46 44 32 36 42
83 80 73 68 61 72 83 98 97 98 98 96 92 80 86 78 74 74 69 67 74 76 66 68 55 72 81 85 70 57 48 46 45 45 46 46 46 45 42 53 57 60 62 59 50 48 49 54 56 56 60 56 65 52
74 70 72 73 89 94 93 98 96 97 85 90 83 80 80 77 68 62 59 65 73 73 74 78 88 86 68 56 55 52 50 49 49 47 46 46 45 45 47 50 53 52 51 54 59 62 64 62 69 70 71 72 79 70
70 73 75 72 94 97 97 97 96 94 87 60 62 67 71 65 59 66 69 76 83 91 92 92 70 58 56 53 52 51 49 49 49 49 48 48 48 48 49 50 52 56 59 62 65 68 71 75 76 77 81 83 84 83
81 78 78 80 95 97 94 97 97 97 100 85 60 78 69 75 87 89 86 75 91 95 81 62 55 50 44 48 50 51 50 49 50 52 52 53 52 52 53 56 60 65 68 70 73 74 79 82 79 82 84 83 82 73
94 85 93 94 97 98 95 92 93 96 93 97 92 86 94 88 89 83 70 79 81 70 66 62 54 52 55 55 53 52 55 57 58 60 61 62 63 64 64 65 65 68 71 70 72 80 75 54 56 63 70 57 57 68
98 91 95 95 96 90 90 94 99 84 94 92 90 90 91 75 62 58 75 64 59 53 52 55 55 54 58 57 59 61 60 65 68 67 66 66 65 66 65 65 64 71 67 45 42 65 64 55 52 51 57 66 69 64
98 97 97 97 96 86 96 95 98 100 100 95 91 85 79 75 58 88 86 56 54 53 54 53 54 60 64 67 72 71 62 57 68 68 66 68 68 65 59 68 58 48 41 42 60 59 60 59 58 73 74 77 74 82
97 96 95 98 100 100 98 95 92 92 98 90 92 91 88 76 91 79 68 54 50 52 52 55 58 58 60 60 60 58 50 60 64 64 62 60 59 62 68 54 46 41 44 68 71 74 76 77 81 81 75 72 76 81
96 91 94 89 96 96 90 97 97 92 79 85 92 76 68 81 81 86 65 46 47 49 50 53 54 57 58 57 61 60 56 51 58 63 60 58 62 66 70 71 69 67 61 72 72 74 76 80 86 88 90 90 94 96
95 95 95 83 75 82 83 88 79 82 90 95 81 87 87 94 86 60 41 40 42 42 40 40 43 54 51 50 52 52 55 56 61 64 66 70 71 70 69 72 75 76 75 75 76 81 86 90 93 97 98 97 96 96
87 81 97 95 96 80 83 87 94 95 84 63 70 87 87 80 55 38 37 37 40 40 41 44 44 49 56 57 58 62 66 72 77 80 84 82 83 86 88 86 81 77 80 78 77 81 84 85 85 85 86 86 82 82
94 72 75 95 93 100 94 84 69 53 48 50 61 60 55 44 41 42 41 43 48 53 56 59 53 53 68 75 78 81 84 88 95 98 91 92 84 74 82 84 86 86 86 86 83 85 87 90 93 95 96 98 96 95
91 68 74 78 95 89 60 57 51 48 55 59 59 59 59 58 54 54 57 58 64 63 62 67 70 76 79 82 78 71 77 81 88 96 97 97 87 84 92 96 98 96 95 96 95 92 91 92 89 88 91 94 96 96
63 75 82 70 70 64 63 59 60 62 66 71 68 72 68 62 60 56 65 59 57 54 65 61 56 54 63 72 80 85 79 68 87 93 98 97 96 96 96 96 97 100 99 99 99 97 92 95 96 96 96 96 96 96
87 94 94 94 70 62 64 70 69 68 66 71 74 74 74 78 80 69 55 50 51 52 50 55 65 70 73 75 72 71 79 83 91 95 96 96 96 96 96 96 95 97 98 95 95 96 96 96 97 97 96 97 98 98
97 96 93 90 80 75 64 68 66 78 75 71 66 67 70 73 75 59 51 48 46 49 53 56 61 69 82 92 96 96 96 96 96 96 96 97 97 98 100 100 99 97 96 96 96 96 96 96 96 96 96 96 96 96

GFSWCAN_850_rhum_177.txt.gz
RH
82 84 82 85 91 96 98 95 94 95 91 90 85 84 82 79 75 72 70 68 72 74 53 60 66 60 61 57 78 60 64 70 73 83 89 84 88 71 56 68 85 86 95 96 88 97 94 47 44 54 48 44 44 43
78 79 79 77 78 80 84 84 83 85 92 97 85 83 83 82 81 75 72 72 75 78 64 55 58 60 64 65 62 58 62 64 60 81 86 83 83 71 64 69 61 68 61 77 72 72 46 42 38 36 40 45 41 43
100 95 100 99 89 90 88 84 81 82 89 93 82 78 78 80 80 77 75 72 72 85 74 71 67 65 64 71 70 69 68 60 62 58 66 81 83 77 78 78 57 48 42 62 62 54 50 44 41 43 44 46 46 50
99 100 99 100 100 94 92 92 93 84 81 84 86 94 84 87 97 85 85 80 74 88 99 72 78 80 83 78 72 75 79 74 71 71 69 85 88 68 87 70 76 61 60 65 65 53 50 47 45 47 48 50 53 54
99 98 99 99 100 100 100 97 96 97 100 99 96 96 98 99 98 94 83 77 74 82 94 90 69 55 63 83 84 89 93 94 94 92 90 94 81 75 76 83 73 57 59 66 67 50 55 55 56 54 54 56 54 56
95 99 98 99 99 99 100 100 100 100 99 99 100 99 95 96 83 74 67 89 88 98 100 99 85 69 69 70 72 83 96 99 100 97 92 85 80 76 98 86 57 55 57 59 60 59 62 59 58 62 60 59 58 58
90 94 99 98 99 99 100 100 99 99 99 99 94 85 72 58 53 69 76 99 100 100 100 99 97 94 90 94 94 99 100 100 98 98 99 90 91 97 99 93 61 59 60 60 59 62 66 68 68 61 63 64 63 64
77 85 91 98 98 98 96 98 99 99 99 99 99 99 98 93 66 52 50 87 100 100 100 100 90 91 93 98 96 96 100 100 100 99 100 100 97 100 98 70 66 63 61 64 63 62 62 67 64 62 61 64 62 62
57 62 75 86 90 98 98 98 98 98 98 98 98 98 97 94 86 63 64 82 62 79 96 98 98 90 96 97 89 92 94 100 95 99 99 98 98 98 91 78 66 61 61 58 58 63 67 64 62 61 60 59 61 65
53 59 62 67 86 95 96 98 98 98 99 99 98 97 94 78 70 85 95 82 95 97 96 94 83 93 84 92 92 94 100 98 99 95 97 99 81 63 65 65 62 63 64 62 66 68 68 70 70 69 69 68 60 46
49 57 58 67 74 78 93 94 96 98 98 98 98 91 85 97 97 97 99 100 97 99 94 88 72 80 80 96 98 95 98 98 99 90 96 97 92 79 64 64 64 64 68 72 69 69 71 70 63 60 63 58 39 33
23 46 56 59 68 73 73 88 93 98 94 94 97 97 98 91 85 97 98 97 99 93 95 100 95 86 80 73 96 99 98 99 97 94 98 98 86 76 74 75 74 78 87 89 93 93 62 39 43 55 56 57 38 30
33 23 40 61 63 77 82 68 68 78 93 98 98 98 98 92 99 100 95 96 98 94 99 99 99 95 100 100 100 99 99 96 92 98 92 85 77 82 81 80 81 54 45 44 40 35 32 37 48 61 55 41 33 30
66 52 31 34 61 64 84 96 87 86 97 98 98 97 96 98 95 92 92 92 92 99 98 99 99 99 99 99 99 98 93 98 98 97 96 96 98 95 98 92 80 54 44 42 42 40 41 44 44 43 43 33 37 37
75 66 61 50 39 56 63 77 97 98 98 98 98 96 99 77 85 75 70 76 88 98 96 84 86 97 94 87 86 89 94 97 94 94 98 83 76 67 58 54 51 49 42 39 42 46 49 46 44 41 32 34 32 34
70 72 67 65 59 46 59 71 88 98 98 97 98 98 92 89 81 77 69 70 79 77 94 92 96 96 98 97 99 93 97 97 80 94 50 53 56 53 50 45 46 48 43 41 46 49 51 50 48 43 42 39 33 43
63 78 74 72 62 57 54 83 96 98 98 98 96 78 73 72 64 58 60 61 65 83 96 96 99 79 87 97 92 90 85 74 37 38 36 34 38 34 34 43 48 50 48 44 46 48 48 48 49 50 50 43 41 47
87 76 80 79 68 60 72 94 97 96 90 96 97 94 97 81 68 62 61 62 61 66 67 84 79 97 99 100 92 78 46 43 41 45 45 40 47 51 51 52 50 51 51 52 51 49 50 51 52 52 51 49 52 43
80 81 91 94 95 97 92 97 93 96 84 80 75 76 78 73 64 61 60 56 58 57 64 74 95 97 93 69 57 52 52 52 54 52 51 50 50 50 50 51 51 52 52 50 49 51 55 56 56 57 58 63 66 55
75 90 97 97 97 97 97 97 98 95 97 68 70 67 61 58 52 55 58 61 67 74 85 99 84 56 55 49 47 50 50 51 55 57 56 52 51 52 55 57 57 58 60 61 62 62 62 58 55 67 73 70 74 66
88 89 96 98 98 97 92 97 98 91 84 93 74 72 68 62 66 69 68 63 77 84 93 67 61 54 41 47 48 55 58 59 60 58 58 60 60 60 61 63 64 66 69 70 72 65 64 69 57 48 59 60 52 54
93 93 94 96 97 98 97 92 84 97 99 88 87 77 77 85 75 64 63 74 84 63 62 54 54 55 58 56 52 56 64 66 64 64 65 67 68 67 58 56 67 67 64 62 62 67 64 56 52 54 62 59 57 62
96 93 96 96 98 93 89 94 99 91 96 95 98 100 100 97 66 61 72 68 58 43 39 43 40 42 58 55 62 61 55 54 58 61 61 56 51 53 62 62 62 75 77 66 70 76 74 69 72 74 75 76 80 82
96 94 97 97 96 94 100 96 99 96 97 97 99 100 94 78 60 86 94 55 45 39 39 39 44 50 50 55 59 53 48 44 52 54 50 53 66 62 60 64 65 71 76 80 79 75 76 82 83 88 87 84 82 83
90 88 97 96 97 96 96 98 97 96 89 91 99 99 89 70 96 100 99 50 39 40 38 36 41 45 56 49 45 42 36 42 52 56 50 58 65 69 69 67 71 75 79 81 78 78 83 90 92 98 98 95 94 96
96 71 95 88 96 91 93 99 95 96 97 99 98 71 88 100 100 90 84 37 35 33 32 32 33 35 38 39 41 41 41 46 58 63 56 61 66 72 74 79 83 78 79 86 91 96 96 97 97 98 97 97 98 99
100 98 95 89 74 82 94 92 86 95 98 96 91 100 99 99 92 72 35 32 32 32 33 35 37 40 42 42 44 46 48 55 63 66 66 70 75 79 86 92 92 78 87 95 97 97 97 96 97 97 97 95 96 97
83 84 94 89 93 82 88 96 89 91 85 54 80 92 85 84 52 35 36 35 37 38 40 41 42 45 49 49 54 61 65 70 74 76 80 78 77 75 72 74 80 88 96 95 95 95 96 96 96 95 96 93 92 90
100 85 82 100 93 97 90 88 83 51 44 48 69 56 52 42 41 43 45 47 52 57 58 59 58 61 66 68 73 78 81 83 86 88 90 96 92 86 96 100 100 97 97 97 97 99 99 98 97 97 98 98 98 98
97 90 88 95 99 99 66 54 50 43 46 49 51 54 56 55 50 55 62 65 69 70 74 78 79 80 80 80 80 75 74 82 92 100 100 99 99 98 98 98 96 96 95 95 95 94 94 95 95 95 95 96 96 96
81 88 83 81 80 56 50 49 52 57 59 62 65 76 74 69 65 68 74 75 76 69 72 76 79 84 89 85 87 90 87 85 91 96 97 96 95 95 95 95 96 96 96 96 96 96 96 95 96 96 95 95 95 96
96 97 100 100 80 55 59 63 62 65 66 68 70 68 73 79 80 70 72 72 65 65 76 84 86 82 86 91 94 97 97 96 96 95 95 94 92 92 94 94 94 95 95 95 96 96 96 96 96 96 96 96 96 96
100 100 100 98 91 81 71 71 68 75 74 70 59 62 67 73 81 70 75 72 76 90 90 90 88 92 92 95 95 94 96 96 96 96 96 97 98 100 100 98 98 97 96 95 95 96 96 97 96 96 96 96 96 96

GFSWCAN_850_rhum_183.txt.gz
RH
98 100 97 88 82 76 77 80 85 86 86 87 87 85 85 85 81 81 81 75 73 71 59 56 59 66 62 62 78 62 66 72 78 81 89 86 92 82 72 70 86 86 92 96 84 95 92 49 53 58 46 44 46 49
100 100 100 100 91 86 82 77 78 79 80 77 80 81 81 83 82 80 80 82 82 82 68 64 60 59 64 68 64 61 60 63 63 81 90 88 92 91 81 83 71 75 64 82 74 72 47 48 44 41 41 44 47 58
97 99 100 100 100 100 100 96 89 84 85 79 76 78 75 84 82 77 76 77 77 85 78 73 58 57 57 52 60 72 67 58 58 58 68 84 84 89 91 88 69 69 54 68 69 57 53 48 44 47 50 56 60 62
92 91 89 96 100 100 100 100 100 100 100 100 96 92 87 77 78 79 74 80 87 86 97 73 63 58 62 65 70 77 82 76 72 71 72 91 90 70 87 73 75 60 60 63 74 57 50 48 48 52 58 64 65 62
80 82 85 86 93 98 97 99 99 100 100 100 99 99 100 100 100 100 99 95 98 97 94 82 69 57 57 58 69 70 77 88 92 91 95 95 82 74 74 87 74 64 66 68 64 50 55 55 57 62 65 66 68 68
54 78 88 87 83 87 99 99 91 93 98 100 99 99 100 100 99 98 98 88 90 100 100 99 84 68 65 67 66 66 75 100 99 98 94 84 76 71 95 92 62 53 54 56 59 60 62 64 67 69 70 70 67 67
41 47 51 57 73 81 81 92 94 89 90 99 99 99 99 99 100 100 99 99 100 100 99 100 99 98 91 88 88 84 86 100 100 99 100 92 89 91 99 92 62 60 58 58 59 63 72 72 77 75 69 69 67 66
38 38 40 47 54 65 74 78 83 91 98 100 99 98 100 99 99 98 81 99 100 100 100 100 97 88 88 98 98 100 100 100 99 99 100 100 99 100 98 78 64 58 59 68 72 72 73 73 68 66 66 69 73 74
29 32 36 39 44 52 58 72 79 84 92 96 98 98 89 100 99 92 81 82 89 96 99 99 99 96 99 98 97 100 100 100 99 98 99 97 98 98 89 82 75 80 78 80 76 71 72 75 80 80 75 74 48 49
34 25 24 27 35 44 55 66 72 86 86 93 98 91 100 96 96 92 96 97 99 99 99 98 94 95 91 97 99 99 100 99 98 92 99 99 98 76 81 83 79 76 72 81 77 75 66 57 44 39 38 36 35 34
71 56 31 22 20 28 43 57 72 80 93 85 97 98 93 92 91 98 98 99 99 99 99 99 94 83 80 97 98 99 98 98 97 86 97 97 88 92 84 80 74 65 60 55 49 42 37 34 33 32 37 44 48 41
72 74 74 66 37 22 25 43 65 81 89 94 97 96 91 90 100 100 97 98 98 93 94 99 93 84 77 92 99 99 98 98 96 94 98 97 88 91 85 84 72 79 54 40 41 43 43 42 44 52 47 43 43 46
64 72 78 69 65 58 34 29 45 78 88 94 97 99 100 99 98 97 94 95 100 98 99 99 99 99 96 98 99 99 98 97 98 97 96 92 95 97 95 90 74 62 59 53 50 43 42 44 58 66 54 46 46 48
72 66 69 71 71 72 66 40 39 66 93 96 100 97 97 96 95 91 89 85 65 87 97 96 95 95 96 98 98 97 96 97 96 96 96 97 94 85 63 57 65 58 60 54 48 47 43 42 42 43 45 47 52 54
58 68 72 76 81 77 72 66 64 74 84 91 100 96 97 76 72 72 70 75 65 76 93 93 94 96 98 98 94 95 80 93 94 95 96 68 50 47 48 50 55 53 46 45 45 50 49 48 50 50 46 48 51 53
71 62 64 69 50 44 69 79 84 88 83 94 94 98 93 94 85 79 90 87 72 86 95 78 97 97 95 97 100 86 95 92 68 89 42 33 43 44 46 53 54 46 43 44 46 46 48 49 49 49 48 45 44 46
73 82 57 60 60 59 68 94 94 94 80 80 91 86 95 95 93 84 81 75 78 93 97 96 96 89 92 100 100 96 90 73 38 32 30 32 34 35 36 40 40 42 44 43 48 49 48 44 48 53 50 39 37 39
91 72 69 65 66 80 87 96 96 97 99 86 100 64 74 76 69 70 79 82 91 97 96 94 92 96 96 100 88 76 41 33 34 36 38 36 36 42 43 44 48 47 51 54 51 49 49 50 54 44 38 38 54 47
76 74 71 68 76 90 91 98 95 96 82 73 69 70 81 78 59 61 65 59 65 80 80 97 97 96 95 82 64 54 54 55 53 49 50 49 50 50 50 47 52 57 53 48 54 53 53 57 52 43 50 54 64 61
74 73 79 74 88 98 97 98 96 95 100 72 75 75 78 75 67 69 67 65 78 98 100 98 95 66 64 54 52 55 52 50 56 61 60 56 54 57 57 58 60 56 62 59 51 47 49 49 42 52 61 67 80 83
84 74 77 84 89 94 97 97 100 98 91 86 77 84 72 67 63 62 63 70 86 87 94 55 50 42 39 41 39 46 57 56 58 59 62 64 60 66 69 68 64 62 66 58 56 50 51 54 57 58 71 77 83 88
91 81 80 85 92 98 98 95 95 97 94 92 94 95 92 82 69 61 65 81 78 57 55 53 51 50 52 49 40 41 45 51 54 58 58 62 73 67 57 52 59 58 54 54 60 59 58 66 72 80 88 90 92 95
96 86 88 88 99 98 87 99 98 98 100 90 100 98 100 98 67 65 76 66 48 39 36 40 42 42 49 46 49 49 45 45 49 42 41 43 44 47 45 43 46 54 58 59 68 73 77 75 84 86 86 90 93 95
96 94 96 96 99 94 100 98 98 99 99 97 97 99 98 86 72 97 100 58 49 43 45 42 42 44 42 40 39 35 31 32 38 40 37 38 42 41 43 50 56 63 74 75 76 81 84 86 84 87 89 95 96 97
96 97 100 92 99 96 96 97 98 98 99 95 97 97 92 90 97 100 85 50 47 42 35 31 31 32 36 37 41 45 46 47 52 54 53 50 49 51 55 62 69 76 84 87 88 90 92 94 96 97 97 97 97 96
97 84 98 97 94 96 94 99 100 96 98 97 98 87 90 100 100 83 75 36 36 34 33 33 35 37 41 49 51 50 51 59 74 76 78 76 70 70 74 79 84 79 80 88 96 97 97 96 97 96 96 95 97 97
99 90 80 86 84 89 94 93 89 95 100 100 96 97 100 99 97 70 34 32 35 40 45 52 58 62 71 75 79 84 91 90 87 87 87 85 85 88 91 93 89 78 88 97 100 100 98 97 97 97 96 95 95 96
81 72 95 90 94 83 88 96 96 99 92 72 81 94 86 85 72 36 37 40 46 54 60 70 79 84 86 83 84 87 89 91 93 93 90 83 78 77 80 85 92 96 100 100 100 98 96 95 95 95 96 95 95 94
96 81 83 99 98 97 93 90 83 59 50 54 84 80 60 43 43 46 50 58 64 74 80 72 77 84 84 83 80 84 88 94 96 92 92 91 87 83 91 96 96 95 95 93 91 95 95 96 96 97 97 97 96 97
95 93 90 95 96 95 68 62 56 48 51 52 53 55 56 55 58 64 68 76 80 75 82 88 88 86 89 91 87 80 83 91 96 97 96 95 95 96 97 95 95 95 96 96 95 94 94 96 95 95 95 95 95 95
89 96 96 98 93 67 62 62 62 61 62 61 57 71 66 68 62 74 90 93 90 93 92 87 84 87 92 92 95 92 83 83 92 95 96 96 96 94 93 94 96 96 96 96 96 96 96 95 96 96 95 95 96 96
100 100 100 100 92 61 67 67 67 65 56 55 54 65 69 73 87 94 92 89 93 93 93 94 93 90 94 98 98 98 98 97 96 96 93 92 93 93 94 95 96 98 98 97 97 96 96 97 97 97 96 95 96 96
100 100 100 100 95 89 78 71 69 79 77 77 78 74 76 82 95 91 81 95 97 99 98 95 95 95 96 96 96 97 96 96 96 96 96 96 96 96 97 97 97 98 97 97 96 96 96 96 96 96 95 96 96 96

GFSWCAN_850_rhum_186.txt.gz
RH
100 100 100 98 99 96 89 84 79 80 82 86 86 87 84 82 84 84 81 77 82 75 67 62 61 70 66 65 76 64 67 72 79 82 89 87 92 84 76 73 88 91 94 94 82 91 92 51 54 58 47 48 48 49
100 100 100 100 100 100 100 95 87 80 77 79 81 83 86 84 81 84 84 80 79 86 78 72 63 62 66 66 69 64 63 64 63 81 89 87 92 92 84 85 76 77 68 83 75 71 48 48 44 39 44 46 48 57
87 91 95 98 100 100 100 100 100 100 95 88 81 79 81 82 82 85 94 85 80 86 80 76 62 62 57 52 56 75 72 62 59 57 68 85 86 89 92 93 73 74 57 69 68 57 53 47 43 42 43 50 58 64
73 75 77 76 86 98 98 100 99 99 100 100 100 96 88 93 100 96 88 83 91 96 100 76 63 65 66 65 66 67 66 73 73 70 72 90 88 70 88 67 75 66 65 68 73 63 50 46 48 52 56 66 67 66
55 61 77 81 79 79 90 86 86 90 89 93 97 99 100 99 100 100 100 98 100 100 99 90 80 59 60 63 66 71 77 89 94 88 95 94 86 77 83 90 89 68 68 63 52 52 54 57 58 63 67 68 69 70
40 44 50 62 82 84 79 82 85 83 82 81 82 89 97 98 99 100 100 100 98 100 100 99 86 74 68 66 64 67 85 97 100 99 89 78 71 71 95 93 62 49 53 52 55 52 56 63 67 70 72 74 70 70
38 38 39 42 50 58 72 82 81 84 90 91 90 89 98 99 100 99 99 100 100 100 100 99 98 97 98 93 89 87 88 96 100 96 96 85 88 82 93 88 64 58 59 60 62 64 71 77 76 71 69 69 67 69
33 34 35 36 38 39 48 56 70 81 79 82 88 91 91 96 98 97 78 92 99 100 100 98 94 93 90 97 96 100 100 100 100 97 100 99 93 97 98 74 70 65 67 77 80 80 78 73 73 74 72 74 68 46
47 31 28 29 31 34 39 44 54 64 82 82 80 83 84 90 97 100 91 90 90 94 99 99 98 96 91 97 98 100 100 99 99 98 95 96 97 98 92 83 81 90 98 98 97 96 96 93 75 45 36 37 37 34
78 78 57 32 26 25 28 33 46 59 72 81 80 88 98 99 98 96 100 100 100 99 98 98 94 98 83 94 99 100 100 99 98 93 99 99 98 91 88 91 96 99 98 97 72 46 40 36 34 33 34 40 45 46
68 71 75 77 64 35 23 24 39 52 60 81 90 99 97 97 92 100 99 99 99 99 98 98 98 98 78 97 97 99 98 98 97 90 98 97 97 93 87 91 95 91 76 47 37 36 43 46 53 50 46 50 61 61
65 59 66 69 71 71 59 32 29 42 68 84 87 85 89 94 99 99 98 97 98 94 96 98 95 97 87 94 100 98 98 98 95 94 98 96 96 95 82 93 98 89 64 53 51 48 36 35 36 40 40 39 54 61
72 74 60 55 68 68 65 68 45 52 56 71 98 100 99 92 98 97 95 94 100 91 98 100 98 84 98 89 99 98 97 97 98 97 95 95 97 97 89 72 58 48 67 80 73 55 38 33 32 33 34 30 40 44
75 63 67 63 64 73 73 73 74 66 67 82 98 95 98 96 95 94 94 89 65 83 100 99 92 89 95 98 98 100 92 95 96 96 96 96 86 73 52 45 58 51 58 68 44 42 37 36 36 34 36 38 42 43
77 81 67 60 66 80 84 85 87 80 72 68 98 91 99 92 83 56 61 78 75 79 93 98 98 95 91 100 98 96 91 93 92 75 91 61 55 52 52 54 55 54 52 53 48 45 42 39 42 43 39 44 47 44
74 72 79 62 59 63 54 69 87 94 91 82 91 99 78 98 76 63 65 70 72 75 79 96 97 98 95 97 100 96 91 80 55 78 28 30 37 41 47 51 48 47 44 44 46 48 48 50 50 49 49 48 44 41
77 99 69 69 64 66 69 70 90 95 97 91 100 72 89 95 94 75 59 63 70 89 98 97 97 92 93 100 100 98 91 75 33 34 36 36 40 42 41 45 45 47 47 40 38 41 47 47 52 57 56 44 42 41
83 71 69 76 75 74 76 84 88 96 96 99 100 50 55 52 55 53 68 66 81 88 84 93 96 96 96 96 91 70 46 39 41 42 42 45 48 49 47 48 46 43 43 40 39 43 46 51 55 49 43 41 51 47
86 79 72 73 84 83 84 98 97 98 83 75 68 64 69 68 59 56 58 61 70 95 88 97 99 98 94 77 65 55 55 54 56 56 55 53 50 45 39 41 45 41 38 41 49 58 59 58 53 48 47 49 57 59
86 85 76 82 86 87 83 90 97 87 100 74 81 76 77 70 63 62 62 70 86 97 98 97 90 60 57 56 59 63 59 52 54 61 59 56 52 50 50 50 51 50 56 56 56 50 49 46 45 47 52 62 82 78
93 92 86 94 97 95 87 98 97 98 97 94 83 88 77 73 70 59 50 61 98 99 100 70 64 55 45 51 51 49 50 49 52 56 61 63 50 63 66 62 53 52 53 46 46 45 51 54 53 58 66 71 80 86
96 95 88 84 92 98 94 93 97 99 100 95 98 96 95 88 65 60 71 91 89 59 55 49 45 43 47 47 42 44 48 51 53 56 51 58 67 56 49 45 49 47 46 46 49 53 56 63 69 75 87 89 95 97
94 96 91 85 98 100 87 100 98 99 100 94 100 98 100 100 78 74 78 67 50 43 41 44 44 43 47 46 46 40 36 37 39 41 44 46 46 49 51 49 46 54 56 51 54 62 72 72 81 90 92 94 95 95
95 93 95 100 98 94 97 93 97 99 100 97 96 99 98 88 82 94 100 56 46 43 44 40 40 39 34 33 34 36 38 42 49 50 53 55 57 62 72 74 68 65 65 62 70 79 82 86 90 95 97 98 97 99
95 99 100 94 100 97 97 97 100 98 97 97 100 100 91 95 98 100 90 48 38 34 34 34 36 39 41 46 50 56 62 66 73 85 87 84 78 86 89 87 88 82 78 83 87 93 96 99 99 99 98 97 98 96
97 87 98 96 94 96 96 99 100 98 100 100 98 90 96 100 100 84 80 38 36 34 40 50 59 63 69 78 88 93 92 94 97 96 90 98 98 99 97 98 95 84 88 99 99 100 100 98 98 99 98 96 95 96
96 89 85 91 88 91 96 94 92 95 99 100 98 100 100 98 96 75 42 34 40 46 55 63 74 88 96 90 86 86 87 87 93 98 94 94 95 98 98 97 96 94 99 97 97 98 97 97 96 96 96 96 97 96
80 73 89 83 97 88 87 95 95 100 94 74 82 94 86 85 75 38 41 45 54 62 69 87 96 96 91 81 83 83 85 92 89 87 85 81 82 92 95 96 96 97 97 96 97 95 96 96 96 97 96 96 95 95
95 85 82 98 96 98 92 87 87 67 55 60 84 84 64 45 46 50 54 63 70 86 95 92 80 75 76 79 79 85 95 96 96 93 90 86 81 78 89 93 94 94 94 93 91 95 96 97 98 98 98 97 96 96
94 91 90 94 96 95 71 66 62 56 60 61 60 60 62 61 64 68 72 86 95 93 91 93 89 90 92 92 87 79 82 94 96 97 97 95 98 96 98 97 96 95 94 94 94 93 93 95 94 94 95 95 95 95
87 98 97 97 92 71 67 68 69 69 68 65 58 73 70 72 71 87 96 93 97 99 97 84 83 88 94 94 96 93 87 84 93 96 97 96 96 96 95 95 95 95 96 96 97 97 96 95 96 95 95 96 96 96
99 97 96 97 96 70 74 73 74 69 58 60 60 69 74 82 94 96 87 93 98 88 86 92 95 92 95 97 97 97 96 96 96 96 94 96 96 97 97 98 97 96 97 97 98 97 96 96 96 96 95 95 96 96
100 100 97 96 96 90 78 66 63 75 76 80 80 75 79 93 94 86 96 96 96 96 95 95 95 95 95 84 93 96 96 96 96 96 96 96 96 97 99 96 96 96 96 96 96 96 95 96 96 96 96 95 96 96

GFSWCAN_850_rhum_189.txt.gz
RH
100 100 100 97 96 94 93 97 98 87 80 76 78 80 81 82 81 87 87 85 84 82 74 71 72 71 71 72 77 67 67 73 79 82 89 86 93 83 76 73 89 89 95 91 80 90 91 49 51 57 45 49 48 51
95 95 96 99 100 100 100 100 100 100 96 89 81 77 80 81 80 77 78 78 82 93 78 70 58 58 63 65 73 70 67 68 66 82 88 88 92 93 83 85 80 77 66 82 74 69 47 48 44 40 45 46 48 50
84 89 85 85 86 84 91 97 99 100 100 100 100 99 93 90 90 86 80 76 86 100 88 84 64 63 60 60 67 81 75 68 61 57 69 84 85 90 92 93 75 77 60 71 70 59 57 48 44 41 43 47 49 60
56 69 81 82 78 86 91 82 83 91 96 97 99 100 100 100 100 100 100 98 99 100 100 83 75 72 70 63 59 63 70 74 72 73 72 90 86 68 88 64 75 57 67 69 76 62 48 44 44 43 45 53 61 65
44 47 52 67 81 83 79 73 76 77 75 76 76 79 87 99 100 100 100 100 100 100 98 95 90 68 69 76 85 72 70 85 97 89 94 90 83 78 82 92 73 64 61 64 53 39 41 46 51 57 61 66 68 72
40 39 38 40 46 53 71 82 78 77 75 85 84 82 80 81 95 89 98 99 100 100 100 98 97 78 66 78 78 81 92 96 100 99 96 83 71 68 89 84 50 48 54 54 52 51 53 56 65 71 73 78 84 92
38 39 38 37 38 41 44 48 53 72 76 76 76 82 89 88 88 95 96 100 100 100 100 98 93 86 96 98 94 84 82 99 100 97 95 87 82 81 97 94 55 55 51 55 60 62 68 72 86 96 99 99 98 84
51 36 32 34 34 34 35 37 41 48 52 65 72 75 72 88 94 83 80 96 91 95 99 99 91 90 83 95 97 100 100 100 100 98 99 94 80 86 98 84 74 70 68 67 75 85 92 97 98 98 98 91 79 58
82 78 66 40 30 29 28 29 32 35 38 48 55 61 60 88 97 100 100 96 100 94 99 99 97 95 90 96 99 98 100 99 98 98 97 91 91 98 92 93 86 84 85 93 98 98 98 95 74 53 55 43 39 36
83 80 78 77 73 48 28 24 24 26 34 41 52 77 97 94 98 88 98 99 100 99 99 98 98 98 78 96 99 100 100 99 99 96 100 99 85 92 96 99 99 98 98 97 95 86 71 47 45 44 44 43 47 52
72 64 63 62 68 75 72 55 32 24 27 53 74 97 88 86 84 96 96 99 98 98 99 97 96 96 84 98 97 96 98 98 100 87 98 99 99 97 98 97 95 92 92 89 83 54 36 36 39 39 34 35 37 34
75 78 79 68 62 61 65 67 74 51 45 54 71 87 91 99 94 98 96 94 97 95 99 99 92 95 92 96 99 98 98 98 96 95 98 96 95 92 76 76 65 73 81 78 81 66 58 51 41 36 33 32 32 31
86 78 69 71 62 46 56 66 72 80 52 42 98 93 96 86 96 96 95 94 98 96 97 98 95 100 97 93 98 100 98 94 86 97 95 94 81 56 59 55 51 51 55 58 63 68 58 40 36 36 35 32 36 38
84 77 72 64 75 51 62 70 77 85 56 60 93 85 95 96 95 94 95 93 67 78 81 84 82 95 97 100 100 98 86 93 98 96 91 92 68 48 48 51 73 54 53 46 47 60 69 46 40 39 38 36 42 44
95 83 67 86 60 63 81 85 86 90 65 64 97 84 96 86 86 83 76 68 57 71 80 92 99 100 94 95 99 97 94 94 94 88 82 35 37 40 47 51 53 51 50 49 47 44 40 38 42 43 41 47 48 48
90 95 82 68 76 61 75 62 79 95 95 80 96 99 92 100 79 63 57 59 54 80 86 100 98 98 93 96 95 100 96 88 74 84 33 36 41 42 45 48 47 45 45 44 40 42 44 39 40 47 49 46 43 48
93 97 81 66 69 68 70 69 66 87 97 97 100 72 97 87 81 49 51 51 66 85 99 98 100 94 91 100 100 99 95 75 38 39 38 48 49 45 47 49 46 44 38 34 35 34 34 37 44 51 54 41 46 44
100 96 76 71 82 79 83 79 79 96 98 88 100 61 64 56 60 54 55 56 68 80 84 94 97 100 95 97 89 71 50 40 42 48 54 53 49 51 54 56 49 45 45 44 45 48 48 52 55 49 48 44 45 44
76 95 76 82 84 90 75 90 88 100 88 82 74 72 70 63 54 51 55 61 74 90 91 100 100 98 94 76 69 55 56 59 65 62 63 54 50 48 46 46 49 50 51 49 54 54 52 48 46 48 48 49 54 57
85 92 89 84 84 91 87 97 99 98 100 78 79 75 76 66 56 55 56 64 87 97 99 95 96 60 57 52 50 56 59 60 65 65 61 55 52 52 54 56 56 53 59 53 49 49 44 42 42 46 51 63 80 74
98 96 98 95 97 88 84 98 98 95 89 100 94 92 80 75 70 63 64 73 97 94 100 63 57 49 42 47 52 50 50 51 56 63 65 68 49 57 52 48 46 50 52 50 49 44 47 50 48 54 64 69 74 81
96 94 97 94 86 91 94 89 92 99 100 100 100 98 100 99 71 68 79 88 99 56 55 50 47 46 49 50 46 47 46 44 41 43 44 52 63 58 56 57 60 57 60 68 70 65 59 58 63 72 78 81 87 93
97 97 93 86 88 100 91 98 98 99 97 99 100 98 100 100 86 80 80 65 48 43 44 47 47 44 46 38 37 40 44 49 55 60 68 74 77 78 82 84 84 81 83 84 84 88 87 80 78 85 92 94 94 94
92 91 85 99 99 96 96 95 97 98 100 98 98 100 98 89 87 94 100 59 40 36 37 38 41 39 44 50 56 61 67 75 84 89 86 92 93 89 92 94 91 89 87 92 95 93 91 90 92 97 97 95 93 93
93 99 100 94 100 96 97 99 99 96 97 100 100 100 93 95 100 100 99 51 37 36 37 38 46 57 64 71 81 91 91 99 100 97 86 95 97 97 91 85 85 85 95 96 95 96 95 99 100 97 96 97 96 96
94 94 98 90 94 97 96 100 100 99 99 100 98 93 100 100 100 85 78 40 40 38 48 59 67 78 85 93 98 91 88 89 91 92 83 95 98 97 97 98 98 90 99 100 99 97 96 96 97 96 95 95 96 97
93 90 87 92 88 91 98 98 96 96 100 100 98 99 100 98 98 73 44 40 46 58 64 73 90 96 97 94 90 88 88 93 97 96 92 90 95 97 97 97 97 97 96 96 96 97 96 94 95 96 96 95 95 96
78 73 86 83 98 91 89 97 98 96 94 78 83 94 85 84 75 40 44 56 61 71 89 97 95 94 89 87 89 93 92 92 87 82 77 74 85 93 96 96 96 96 96 96 96 95 96 97 98 98 97 96 94 96
93 85 78 96 95 99 95 89 90 77 66 64 84 86 63 50 52 56 62 69 85 96 94 85 76 76 81 84 85 91 95 95 94 90 87 89 82 84 93 94 95 95 96 95 94 97 97 99 100 100 98 98 97 96
96 96 91 95 100 96 70 64 65 62 66 68 67 67 67 69 72 73 88 96 95 95 90 82 85 92 94 92 90 83 86 94 96 97 97 95 95 94 96 97 96 96 96 97 96 93 94 96 95 95 95 95 95 95
92 100 97 98 94 71 69 72 73 74 73 68 65 80 79 79 84 96 96 95 94 88 82 84 84 92 96 96 95 92 88 85 94 96 97 96 96 95 96 96 96 96 96 96 96 96 95 95 96 95 95 95 96 96
99 97 97 97 93 78 79 77 74 66 60 69 66 73 82 87 95 96 96 84 80 83 93 93 92 91 94 98 91 91 95 92 93 96 96 96 96 96 97 98 96 96 96 96 96 96 96 96 95 96 96 95 95 95
100 99 96 94 95 87 76 70 64 73 75 77 79 76 84 95 96 96 97 94 91 97 100 95 92 90 86 88 88 89 88 88 96 98 97 97 97 97 97 96 96 96 96 96 96 96 96 96 96 96 96 96 96 96

GFSWCAN_850_rhum_195.txt.gz
RH
100 99 98 99 99 98 96 96 99 98 99 99 93 82 86 81 75 77 84 76 81 78 73 73 73 66 64 65 56 60 57 64 60 59 54 47 48 34 40 29 48 52 65 70 63 60 57 30 40 40 31 33 38 39
96 85 76 74 79 91 82 88 94 98 99 100 100 100 100 100 99 94 84 80 86 96 81 78 69 74 78 72 69 66 55 62 54 54 48 50 52 53 46 46 37 48 36 31 43 37 30 41 34 32 35 38 38 36
67 70 84 88 76 71 65 63 62 65 69 79 89 95 98 99 100 100 100 100 100 100 96 98 86 74 69 65 71 74 65 65 62 60 54 49 58 43 53 45 38 36 36 44 42 32 29 29 32 36 39 41 41 42
42 44 48 51 55 59 63 66 64 64 67 67 66 66 68 70 86 98 100 100 100 100 100 88 81 82 80 76 74 72 69 73 75 78 67 66 68 46 53 48 48 39 40 45 45 38 36 34 35 37 40 42 46 47
49 47 40 39 38 39 46 47 46 52 59 67 69 68 68 68 68 67 68 88 100 100 100 98 88 77 81 81 84 91 92 93 89 90 97 94 70 79 74 64 68 51 50 56 60 47 49 51 56 57 65 69 72 71
57 42 40 40 38 38 39 36 33 31 33 33 34 43 58 62 60 64 99 99 99 99 100 100 99 86 82 82 82 86 85 100 100 97 98 96 82 93 100 73 47 53 65 90 97 98 80 82 88 90 99 99 99 100
88 92 80 50 36 34 34 33 32 29 27 26 25 27 32 42 63 85 96 99 98 96 99 98 86 94 90 91 93 98 100 99 99 97 99 94 92 98 100 93 94 86 100 98 96 82 84 93 97 98 97 98 97 97
49 66 82 92 88 70 47 32 28 26 24 22 21 20 21 35 46 61 79 91 90 91 94 98 83 76 85 92 85 98 99 99 99 98 99 92 80 85 98 84 79 86 98 93 92 93 94 86 80 85 82 64 70 81
78 55 51 60 77 77 85 85 61 39 29 25 25 23 37 74 96 99 99 98 98 99 98 98 83 72 82 91 84 99 99 85 70 81 68 61 62 88 91 83 81 71 66 67 63 58 53 50 45 42 41 42 46 48
92 88 79 78 81 64 64 68 76 73 65 49 34 44 93 94 83 67 82 99 97 98 99 96 93 84 75 64 68 79 90 89 91 75 87 88 87 97 84 61 61 58 55 55 72 54 46 42 49 56 55 57 58 54
96 93 88 76 68 70 56 43 47 62 64 54 33 62 65 45 47 79 92 94 98 94 98 89 93 91 95 80 75 79 89 79 82 67 69 77 88 87 64 55 54 62 61 61 74 68 65 72 79 72 66 64 68 64
90 90 84 86 69 73 73 55 53 64 69 72 68 60 77 89 96 90 84 90 91 93 91 87 76 86 89 93 85 73 82 76 76 89 76 82 58 63 67 64 62 65 68 84 90 92 92 92 80 80 83 82 81 78
76 70 82 89 88 71 70 77 46 53 77 77 80 86 91 82 87 84 86 90 90 68 78 83 77 90 98 97 91 94 94 78 58 78 46 42 61 67 65 55 65 65 68 73 80 74 55 66 69 74 68 66 67 58
75 89 77 86 89 87 63 80 58 68 81 64 87 82 83 80 72 71 65 54 71 71 84 93 89 82 96 95 90 96 66 78 63 54 52 54 50 50 51 51 52 49 44 33 34 40 48 52 50 43 40 45 55 52
82 86 93 85 90 78 83 67 77 84 87 81 87 83 86 73 91 97 98 95 75 68 94 87 85 91 83 87 84 82 87 77 48 43 55 50 48 51 52 54 58 60 56 52 47 46 41 39 37 36 32 36 42 52
80 82 70 69 80 83 96 80 86 94 94 85 97 92 81 93 80 97 93 90 58 80 71 99 80 82 78 80 87 79 83 69 50 56 52 52 54 52 55 59 58 54 47 44 43 45 51 54 58 62 58 50 46 49
68 86 76 87 89 95 95 95 74 74 96 100 99 98 88 88 80 66 66 66 67 87 72 86 92 79 86 88 85 72 83 54 48 53 55 59 60 59 50 49 47 52 58 57 54 50 48 47 48 49 52 42 45 49
76 65 75 96 97 93 97 95 79 82 100 100 97 74 88 75 71 76 72 82 87 81 89 80 88 89 77 66 61 50 52 49 52 54 55 56 56 57 56 60 55 53 53 53 56 57 56 54 56 54 63 59 61 60
78 69 81 97 98 95 94 95 90 97 94 99 96 88 81 80 66 58 69 80 91 91 90 97 88 83 64 54 52 48 51 55 59 57 58 57 57 56 58 60 64 72 78 84 88 92 94 89 85 84 83 77 82 87
92 80 93 98 96 94 87 97 95 100 100 100 88 92 96 90 73 65 76 92 100 97 95 90 70 52 49 46 48 54 60 59 61 59 56 56 60 65 71 77 82 84 88 90 92 92 95 95 94 95 97 98 98 97
95 95 98 98 97 87 81 88 100 100 100 100 100 100 99 92 77 94 98 89 100 93 83 72 62 57 58 63 54 49 49 58 61 64 68 74 78 83 84 85 87 89 92 96 99 96 95 95 94 94 95 93 94 96
99 98 98 98 96 94 93 98 100 97 99 99 99 100 100 100 100 100 86 97 100 90 84 59 53 58 60 50 50 60 65 69 79 83 84 88 92 94 95 97 99 99 98 97 96 97 94 94 97 96 97 94 95 93
97 96 88 92 93 94 92 95 99 99 97 96 97 94 94 99 99 84 98 83 68 47 47 44 46 49 53 60 62 66 81 88 91 95 100 98 100 100 99 96 96 96 95 94 94 94 94 98 96 96 95 94 93 93
90 86 92 91 86 96 96 99 96 99 99 93 88 93 87 96 86 98 90 80 50 46 44 46 49 49 59 68 81 88 96 100 100 98 100 100 100 100 100 98 94 93 94 94 95 96 96 95 98 96 98 98 96 97
83 96 85 97 96 96 97 95 96 94 92 92 94 93 92 90 91 90 83 65 46 44 46 60 72 83 97 95 100 100 100 100 100 100 86 94 100 93 88 88 88 93 97 99 94 96 99 100 100 96 95 95 96 97
92 96 95 87 97 94 89 99 98 94 92 96 93 96 95 92 94 88 71 53 50 58 80 91 99 98 87 90 94 94 94 98 97 93 87 96 98 98 98 100 100 94 98 100 100 100 100 99 99 97 96 95 96 98
91 93 90 86 84 85 94 95 94 92 95 94 87 92 92 96 90 70 54 56 78 89 96 96 95 88 80 80 84 94 99 97 91 93 90 90 95 96 97 98 96 93 94 98 100 100 100 99 100 98 96 94 95 97
84 75 88 88 94 90 93 93 94 94 86 82 84 92 87 82 72 54 68 90 96 96 96 95 87 76 82 83 88 94 90 82 83 81 83 82 85 94 96 96 97 96 97 96 96 98 100 100 99 96 96 97 96 95
93 86 79 95 96 95 94 90 84 67 72 75 83 84 77 66 81 95 96 96 96 95 88 67 71 74 78 82 84 86 88 93 99 99 97 92 83 85 96 94 95 96 96 96 95 98 98 99 98 99 97 96 95 96
98 96 94 95 98 92 69 67 70 68 73 77 77 76 77 86 96 98 96 96 95 94 94 86 78 85 82 84 83 75 79 92 100 100 100 98 97 97 97 97 97 97 97 97 96 94 94 95 95 95 95 95 95 95
98 98 97 98 94 80 75 76 74 74 74 80 82 88 94 96 96 96 95 95 96 92 78 77 84 83 85 85 93 98 93 87 94 97 100 99 97 98 99 100 100 99 97 96 96 96 96 95 96 96 96 95 95 95
100 99 99 97 88 79 77 76 73 71 77 82 82 87 95 96 96 96 94 90 76 74 86 91 86 83 84 86 91 99 100 100 100 100 98 97 97 97 99 100 97 96 96 96 96 96 96 96 96 96 95 96 96 96
98 100 98 96 93 82 77 79 79 81 79 80 95 95 95 96 96 94 90 86 94 100 97 92 89 88 85 86 90 95 95 98 99 100 99 100 100 100 100 97 97 98 97 96 96 96 95 96 96 96 96 96 96 96

GFSWCAN_850_rhum_201.txt.gz
RH
98 98 98 98 99 96 87 73 67 72 83 94 96 96 96 88 79 76 85 91 90 88 77 68 71 74 69 67 78 64 63 69 75 80 87 80 80 55 51 61 76 77 88 95 87 94 85 40 39 48 67 68 67 74
98 98 98 85 70 68 63 57 52 50 51 54 56 59 60 66 78 90 97 94 100 100 86 75 73 75 80 77 72 70 66 68 65 79 81 81 78 72 65 72 48 59 57 69 67 71 44 51 70 83 83 88 91 86
87 92 83 74 61 49 39 37 36 34 33 35 40 46 51 52 53 59 79 96 99 100 97 98 86 78 74 70 73 88 76 67 65 71 91 90 91 69 95 82 57 50 44 57 58 57 62 63 76 99 97 94 95 89
62 57 64 66 61 49 46 42 36 33 30 28 27 26 26 30 40 49 52 59 75 99 100 97 92 95 89 83 84 81 79 79 84 91 99 100 100 72 87 73 71 59 57 65 70 71 84 98 92 88 77 80 82 91
89 93 90 71 46 42 42 40 37 34 30 28 26 23 22 20 19 24 45 82 98 89 98 95 86 71 80 80 84 84 86 86 96 98 98 99 99 96 98 97 96 97 96 96 94 99 98 98 86 69 67 62 67 56
47 52 67 90 94 92 68 41 35 32 29 27 25 22 21 20 19 21 94 100 97 96 92 86 86 71 81 80 82 94 97 99 100 100 98 99 99 99 99 97 97 86 84 75 78 79 89 74 74 65 54 55 52 50
86 82 68 52 54 68 86 91 86 76 56 37 29 26 24 24 24 24 66 95 89 65 96 95 82 88 92 92 96 91 92 99 93 95 98 94 93 90 99 88 93 77 76 76 83 87 74 54 48 44 46 48 52 51
92 92 90 87 78 74 64 74 74 72 70 69 58 52 47 36 29 41 67 69 77 86 96 95 82 87 86 87 89 95 94 99 98 98 100 99 94 99 99 86 68 74 68 59 51 56 50 52 53 55 57 57 56 53
92 93 93 96 88 84 73 72 69 52 40 39 37 38 40 80 94 98 79 53 90 95 96 91 90 97 91 91 75 92 89 96 80 91 93 82 88 96 86 70 70 71 76 77 59 53 57 59 57 56 56 52 56 55
91 86 94 94 87 85 79 68 66 60 36 31 33 39 53 92 76 45 57 91 90 92 98 98 87 91 75 79 73 83 91 98 98 87 76 98 96 63 65 73 56 68 74 66 67 63 61 64 65 63 59 56 62 64
79 88 78 81 76 80 79 69 82 70 43 63 54 48 64 58 62 67 96 95 95 98 98 97 93 98 95 98 98 96 96 95 97 80 85 97 97 81 73 65 57 59 54 50 55 56 58 62 63 66 64 60 70 74
83 88 92 78 67 63 70 85 66 78 47 64 76 81 80 85 90 98 94 93 97 96 92 85 72 83 87 88 95 88 99 94 100 88 92 96 96 75 52 44 44 42 42 43 46 51 51 51 48 48 49 48 48 52
81 70 80 80 64 60 71 90 66 81 54 71 82 84 92 87 83 94 95 95 96 78 64 72 87 84 81 88 82 93 87 94 79 100 99 97 72 62 56 48 36 32 36 36 36 36 39 42 43 45 46 43 46 51
95 88 65 67 73 70 79 90 71 72 66 77 89 92 88 97 96 95 93 87 65 66 71 73 82 95 85 85 88 94 90 92 92 86 97 94 56 44 46 44 45 42 44 46 46 48 50 51 54 56 62 69 73 72
90 89 81 69 76 78 86 90 79 72 75 82 86 92 99 76 80 87 93 69 78 70 78 86 90 81 77 95 92 90 90 100 90 93 90 51 50 54 55 55 56 56 53 52 56 59 61 64 69 72 75 78 78 80
84 95 85 80 73 78 90 94 95 87 86 88 95 90 85 87 86 87 71 62 70 83 87 84 82 97 85 95 99 98 98 98 80 82 57 60 60 57 53 49 52 56 58 62 65 67 72 78 82 84 82 80 79 81
82 86 81 82 85 84 87 95 96 83 91 96 97 97 95 96 89 68 72 71 79 78 97 91 100 90 87 100 100 96 95 87 57 58 56 52 51 51 54 59 61 64 67 73 80 80 84 85 86 85 85 83 85 91
82 75 92 79 76 95 99 95 92 69 78 85 97 85 97 91 82 68 63 70 77 88 85 90 96 90 99 99 92 82 60 62 61 53 53 56 59 62 65 68 73 82 87 88 91 94 91 86 93 98 99 96 94 85
81 88 95 85 73 93 94 91 87 90 91 98 99 95 89 86 78 80 78 78 81 87 91 95 99 100 97 74 64 64 65 55 59 61 66 68 72 79 85 91 94 90 90 88 91 92 95 97 96 96 94 94 97 94
91 96 95 90 78 94 94 94 88 95 92 96 100 99 100 92 93 94 89 93 94 90 93 99 96 77 72 69 66 56 58 67 73 79 84 83 85 95 96 90 88 87 86 88 94 99 93 96 88 91 95 98 97 97
97 98 98 85 98 94 86 86 93 94 94 94 91 98 98 100 100 99 100 100 94 94 97 82 76 75 61 59 65 64 71 78 88 90 92 98 94 92 84 86 90 89 99 99 98 95 96 92 98 98 90 84 86 95
88 92 97 97 91 87 92 94 96 100 97 91 90 94 98 95 95 97 100 99 94 93 88 93 83 64 62 63 64 71 70 68 72 77 80 97 95 94 86 91 99 99 95 95 100 99 96 98 97 96 96 98 96 89
79 86 91 95 91 94 96 95 92 100 90 89 92 89 90 95 99 97 88 83 77 84 90 77 70 72 69 69 65 59 61 70 84 93 89 92 91 90 97 100 98 99 96 95 100 96 95 100 92 98 96 93 96 92
90 94 96 93 86 96 94 97 97 99 92 96 86 100 94 95 89 94 99 77 81 79 75 76 77 70 64 63 60 62 70 85 94 95 96 100 97 93 90 86 90 96 97 98 97 98 96 95 99 95 96 97 95 95
93 94 85 96 95 90 99 100 100 99 100 100 100 99 89 93 100 100 98 73 71 75 88 89 80 78 70 67 66 70 82 96 100 98 81 100 100 92 89 89 86 91 97 97 97 97 95 96 97 97 96 96 96 97
94 93 88 90 98 87 97 97 100 97 100 100 98 95 94 97 100 92 88 72 91 100 96 91 92 86 79 79 78 77 87 99 100 92 84 90 90 99 100 100 94 85 96 98 98 98 96 95 96 96 94 94 96 97
86 91 88 84 82 84 93 95 95 95 100 100 97 98 100 97 100 79 78 94 96 96 96 96 96 90 82 76 73 76 80 82 87 90 85 80 82 91 98 99 97 95 95 96 97 98 97 97 98 96 96 94 96 97
89 88 81 85 86 87 90 98 100 100 92 82 85 94 90 88 85 97 97 96 96 96 95 94 85 76 74 76 79 78 77 79 80 79 74 70 79 87 98 98 97 96 97 96 97 97 99 98 98 98 99 97 95 95
96 93 87 94 94 96 93 90 85 75 78 78 91 95 96 96 96 96 96 95 95 93 78 69 68 70 72 75 77 81 90 95 96 89 84 84 82 81 92 93 91 92 95 95 93 97 97 100 98 97 96 96 96 96
98 98 98 98 97 94 76 77 81 86 86 89 94 96 96 96 96 96 94 93 80 76 82 79 83 84 82 80 78 73 82 93 100 100 100 98 100 97 95 94 95 96 95 96 97 93 93 95 95 95 95 95 96 96
98 96 97 99 97 87 88 87 81 77 84 87 93 99 96 95 96 96 90 88 87 83 80 84 83 86 85 88 96 95 85 86 94 98 99 98 97 96 98 100 99 98 98 97 96 96 96 96 96 96 96 96 96 96
98 97 96 98 84 84 82 78 83 88 89 93 96 96 96 96 96 90 89 98 90 89 91 92 92 86 89 92 99 100 100 100 99 95 94 95 96 98 100 99 98 97 96 96 96 96 96 96 96 96 96 96 96 96
97 96 96 96 92 85 88 86 91 92 94 96 96 95 96 95 97 96 97 99 100 100 99 96 94 89 89 93 99 97 98 99 99 100 99 99 99 100 99 96 96 96 96 96 96 96 95 96 96 96 96 96 96 96